Location: Santa Giusta
(39.8800°N, 8.6069°E)
Time: 17:08:33
(UTC+00:00)

Lacrosse 5 rocket - Pass Details

Date: 02 February 2023
Orbit: 455 x 612 km, 57.0° (Epoch: 01 April)

Event Time Altitude Azimuth Distance (km) Brightness Sun altitude
Rises 18:02:48 0° 328° (NNW) 2,486 5.0 -15.1°
Reaches altitude 10° 18:05:34 10° 351° (N) 1,624 3.7 -15.6°
Enters shadow 18:07:28 16° 23° (NNE) 1,325 3.0 -15.9°
